Precipitable_Water
1.40 1.38 1.41 1.43 1.41 1.38 1.41 1.38 1.37 1.32 1.32 1.29 1.20 1.15 1.11 1.09 1.02 0.93 0.90 0.89 0.88 0.84 0.81 0.79 0.76 0.73 0.71 0.70 0.69 0.66 0.62 0.57 0.53 0.51 0.49 0.46 0.45 0.42 0.38 0.38 0.37 0.36
1.39 1.40 1.45 1.49 1.44 1.44 1.45 1.44 1.38 1.34 1.30 1.26 1.20 1.16 1.14 1.11 1.03 0.95 0.90 0.87 0.84 0.81 0.80 0.76 0.73 0.72 0.70 0.68 0.67 0.63 0.58 0.53 0.49 0.49 0.45 0.44 0.42 0.39 0.37 0.36 0.35 0.35
1.41 1.43 1.47 1.44 1.43 1.45 1.45 1.44 1.39 1.34 1.28 1.24 1.20 1.17 1.14 1.12 1.02 0.95 0.90 0.85 0.81 0.80 0.77 0.74 0.72 0.71 0.70 0.68 0.66 0.61 0.55 0.50 0.46 0.45 0.43 0.41 0.39 0.37 0.36 0.35 0.33 0.31
1.45 1.51 1.48 1.45 1.42 1.46 1.46 1.41 1.36 1.31 1.26 1.20 1.17 1.18 1.16 1.12 1.03 0.94 0.88 0.85 0.81 0.78 0.76 0.74 0.72 0.71 0.69 0.66 0.63 0.57 0.51 0.47 0.45 0.44 0.40 0.38 0.37 0.37 0.35 0.34 0.32 0.30
1.47 1.52 1.52 1.47 1.48 1.49 1.45 1.38 1.31 1.26 1.22 1.20 1.19 1.18 1.15 1.10 1.02 0.93 0.86 0.83 0.80 0.77 0.75 0.73 0.72 0.70 0.68 0.65 0.60 0.52 0.46 0.43 0.43 0.41 0.36 0.34 0.36 0.36 0.36 0.33 0.30 0.29
1.49 1.51 1.49 1.46 1.47 1.45 1.41 1.36 1.30 1.25 1.21 1.19 1.18 1.19 1.14 1.10 1.02 0.93 0.86 0.81 0.79 0.77 0.74 0.72 0.71 0.70 0.67 0.62 0.56 0.48 0.43 0.41 0.40 0.38 0.35 0.34 0.35 0.36 0.35 0.33 0.30 0.28
1.46 1.47 1.46 1.47 1.47 1.45 1.40 1.34 1.29 1.24 1.21 1.20 1.20 1.15 1.13 1.08 1.01 0.95 0.87 0.82 0.78 0.76 0.73 0.72 0.70 0.68 0.66 0.59 0.51 0.44 0.42 0.40 0.39 0.36 0.34 0.35 0.35 0.35 0.35 0.33 0.31 0.29
1.45 1.48 1.49 1.48 1.44 1.41 1.37 1.32 1.27 1.23 1.21 1.19 1.16 1.14 1.12 1.06 1.01 0.96 0.89 0.83 0.79 0.76 0.74 0.73 0.72 0.69 0.64 0.57 0.48 0.42 0.40 0.40 0.37 0.35 0.34 0.36 0.36 0.34 0.34 0.34 0.33 0.30
1.43 1.46 1.47 1.46 1.41 1.37 1.33 1.30 1.27 1.23 1.22 1.17 1.14 1.10 1.10 1.06 1.01 0.97 0.89 0.83 0.79 0.77 0.75 0.74 0.72 0.69 0.64 0.56 0.47 0.41 0.39 0.38 0.37 0.35 0.35 0.35 0.35 0.35 0.34 0.34 0.32 0.31
1.41 1.47 1.46 1.44 1.38 1.35 1.31 1.30 1.27 1.23 1.21 1.16 1.12 1.09 1.05 1.04 1.02 0.97 0.90 0.84 0.80 0.78 0.76 0.75 0.74 0.70 0.63 0.55 0.46 0.41 0.39 0.37 0.37 0.37 0.37 0.37 0.37 0.36 0.35 0.35 0.33 0.31
1.38 1.43 1.43 1.40 1.37 1.35 1.32 1.30 1.25 1.22 1.19 1.15 1.10 1.05 1.04 1.01 1.00 0.97 0.90 0.84 0.81 0.78 0.78 0.77 0.75 0.71 0.63 0.54 0.47 0.44 0.41 0.39 0.38 0.38 0.38 0.39 0.39 0.38 0.38 0.36 0.35 0.33
1.37 1.41 1.40 1.38 1.36 1.34 1.32 1.30 1.25 1.21 1.18 1.14 1.09 1.04 1.02 1.01 0.97 0.95 0.90 0.85 0.83 0.81 0.81 0.80 0.77 0.73 0.64 0.55 0.47 0.43 0.42 0.40 0.39 0.39 0.39 0.39 0.39 0.39 0.39 0.39 0.37 0.35
1.37 1.38 1.37 1.37 1.35 1.34 1.33 1.30 1.26 1.23 1.18 1.12 1.09 1.04 1.02 0.99 0.97 0.94 0.91 0.88 0.85 0.85 0.84 0.82 0.79 0.75 0.66 0.56 0.48 0.43 0.42 0.40 0.39 0.39 0.40 0.40 0.40 0.40 0.41 0.41 0.40 0.37
1.38 1.37 1.36 1.36 1.35 1.34 1.32 1.29 1.27 1.25 1.19 1.14 1.09 1.05 1.02 1.00 0.96 0.93 0.92 0.90 0.88 0.87 0.87 0.86 0.82 0.75 0.66 0.56 0.48 0.43 0.42 0.40 0.40 0.39 0.39 0.39 0.40 0.40 0.41 0.41 0.41 0.39
1.37 1.36 1.35 1.34 1.33 1.31 1.29 1.27 1.25 1.24 1.20 1.14 1.09 1.06 1.05 1.02 0.99 0.96 0.92 0.89 0.89 0.89 0.88 0.86 0.82 0.76 0.67 0.57 0.48 0.43 0.42 0.41 0.40 0.40 0.39 0.39 0.39 0.40 0.41 0.41 0.41 0.40
1.34 1.33 1.30 1.30 1.29 1.28 1.27 1.25 1.24 1.22 1.19 1.13 1.08 1.07 1.06 1.04 0.99 0.96 0.93 0.91 0.89 0.89 0.89 0.87 0.83 0.78 0.69 0.57 0.48 0.43 0.42 0.41 0.41 0.41 0.40 0.40 0.39 0.38 0.39 0.41 0.41 0.41
1.30 1.28 1.27 1.26 1.27 1.26 1.24 1.22 1.21 1.20 1.16 1.10 1.07 1.07 1.06 1.04 0.99 0.95 0.93 0.93 0.91 0.90 0.89 0.87 0.83 0.77 0.69 0.56 0.47 0.43 0.42 0.42 0.41 0.41 0.41 0.41 0.39 0.38 0.38 0.39 0.40 0.41
1.26 1.25 1.23 1.24 1.25 1.23 1.21 1.20 1.20 1.17 1.11 1.08 1.07 1.06 1.05 1.03 0.98 0.96 0.95 0.94 0.93 0.92 0.90 0.87 0.82 0.77 0.68 0.56 0.47 0.42 0.41 0.42 0.42 0.41 0.41 0.40 0.39 0.38 0.39 0.39 0.40 0.40
1.24 1.22 1.21 1.22 1.23 1.22 1.20 1.18 1.16 1.13 1.09 1.08 1.07 1.08 1.06 1.01 0.98 0.97 0.95 0.96 0.95 0.93 0.89 0.86 0.82 0.76 0.68 0.56 0.47 0.42 0.40 0.41 0.42 0.42 0.41 0.39 0.38 0.37 0.38 0.39 0.40 0.40
1.24 1.22 1.21 1.22 1.24 1.22 1.19 1.16 1.15 1.11 1.10 1.10 1.09 1.08 1.05 1.01 0.99 0.97 0.97 0.97 0.96 0.93 0.89 0.86 0.82 0.75 0.66 0.55 0.47 0.42 0.39 0.40 0.41 0.42 0.41 0.40 0.38 0.38 0.39 0.39 0.40 0.39
1.23 1.22 1.22 1.22 1.21 1.20 1.17 1.15 1.13 1.12 1.09 1.08 1.07 1.06 1.04 1.01 0.99 0.97 0.97 0.98 0.97 0.93 0.89 0.85 0.81 0.74 0.64 0.53 0.46 0.41 0.38 0.38 0.41 0.41 0.40 0.40 0.39 0.40 0.40 0.40 0.40 0.40
1.23 1.22 1.22 1.21 1.19 1.17 1.15 1.13 1.12 1.10 1.08 1.08 1.07 1.06 1.05 1.04 1.01 1.01 1.00 0.98 0.95 0.90 0.87 0.83 0.77 0.69 0.60 0.50 0.44 0.40 0.37 0.38 0.40 0.39 0.39 0.38 0.38 0.40 0.40 0.40 0.40 0.39
1.24 1.23 1.21 1.19 1.19 1.17 1.15 1.14 1.13 1.12 1.10 1.09 1.05 1.04 1.03 1.01 1.00 1.01 1.01 0.97 0.93 0.90 0.86 0.80 0.72 0.66 0.57 0.47 0.42 0.39 0.37 0.37 0.38 0.38 0.38 0.38 0.38 0.39 0.40 0.40 0.40 0.39
1.26 1.22 1.19 1.20 1.19 1.17 1.16 1.16 1.14 1.10 1.07 1.07 1.05 1.04 1.02 1.01 1.02 1.01 0.98 0.95 0.91 0.87 0.83 0.76 0.69 0.62 0.52 0.45 0.41 0.38 0.36 0.36 0.37 0.37 0.36 0.36 0.37 0.39 0.40 0.40 0.39 0.37
1.27 1.23 1.21 1.20 1.17 1.17 1.18 1.15 1.10 1.07 1.07 1.07 1.07 1.05 1.04 1.05 1.03 0.98 0.95 0.92 0.89 0.86 0.82 0.74 0.66 0.56 0.48 0.43 0.39 0.37 0.36 0.37 0.37 0.36 0.34 0.34 0.35 0.35 0.37 0.37 0.37 0.37
1.32 1.26 1.23 1.20 1.20 1.21 1.18 1.12 1.08 1.05 1.05 1.05 1.05 1.05 1.05 1.03 0.99 0.94 0.90 0.88 0.87 0.83 0.77 0.69 0.57 0.49 0.45 0.41 0.38 0.36 0.37 0.37 0.37 0.34 0.32 0.32 0.32 0.33 0.33 0.35 0.36 0.35
Wind_Speed
17 16 16 15 16 16 16 15 14 14 13 11 10 8 8 8 8 8 7 7 6 5 5 6 6 6 6 7 8 9 10 11 11 11 11 12 12 12 12 12 12 13
17 16 16 15 15 16 16 16 14 14 13 11 10 9 8 8 8 8 7 7 6 6 5 5 6 6 7 8 9 9 10 10 10 11 11 11 12 12 12 12 12 13
17 16 16 15 16 17 17 16 14 14 13 11 10 9 9 8 8 8 7 6 6 6 5 5 6 6 7 8 9 9 9 10 10 10 11 11 11 12 12 12 13 13
17 16 16 15 16 17 17 16 15 14 13 12 11 10 9 8 8 8 7 7 6 6 5 6 6 7 7 8 8 9 9 9 9 10 10 11 11 11 12 12 13 13
17 16 16 16 17 18 17 16 15 14 13 12 11 10 9 9 9 8 8 7 6 6 6 6 6 7 7 7 8 8 8 8 9 10 10 10 11 11 12 12 12 13
17 17 16 17 17 18 17 16 15 14 14 13 12 11 10 9 9 9 8 7 7 6 6 6 6 7 7 7 7 7 8 8 9 10 10 10 10 11 11 12 12 13
18 17 17 18 18 18 17 16 16 15 14 13 12 11 10 10 10 9 8 8 7 7 7 6 6 6 6 6 7 7 7 8 9 9 10 10 10 11 11 11 12 13
18 17 18 18 18 18 17 16 16 16 14 13 12 11 11 10 10 9 9 8 8 7 7 6 6 6 6 6 7 7 8 8 9 9 9 10 10 10 11 11 12 12
18 17 18 18 18 18 17 17 17 16 15 13 12 12 11 11 10 10 9 8 8 7 7 6 6 6 6 6 7 7 8 8 9 9 9 9 9 10 10 11 12 12
18 18 18 18 18 18 18 18 18 17 15 14 13 12 12 12 11 10 9 8 8 8 7 6 6 6 6 7 7 7 8 8 8 8 9 9 9 10 10 11 12 12
18 18 18 18 18 19 19 19 18 17 16 15 14 13 12 12 11 10 9 9 8 8 7 7 6 6 7 7 8 8 8 8 8 8 8 9 9 9 10 11 12 12
18 18 19 19 19 19 19 19 18 18 16 15 14 13 13 13 12 11 10 9 9 9 8 8 7 7 7 8 8 8 8 8 8 8 8 8 9 9 10 11 12 12
18 18 19 19 19 19 20 19 19 18 17 16 15 14 14 14 13 12 11 10 10 9 9 8 8 8 8 8 8 8 8 8 8 8 8 8 9 9 10 11 12 12
18 18 19 19 19 19 19 19 19 18 18 17 16 15 15 15 14 13 12 11 11 10 10 9 9 9 9 9 9 8 8 8 8 8 8 8 9 9 10 11 12 12
18 18 19 19 19 20 19 19 19 18 18 18 17 16 15 15 15 14 13 12 12 11 11 10 10 9 9 9 9 9 9 8 8 8 8 8 9 9 10 11 12 12
19 19 19 19 19 20 19 19 19 19 19 18 18 17 16 16 15 14 14 13 13 12 12 11 10 10 10 10 10 9 9 9 9 9 9 9 9 10 11 11 12 12
20 20 20 19 20 20 20 20 19 19 19 19 19 18 18 17 16 15 15 14 13 13 12 12 11 11 10 10 10 10 9 9 9 9 9 9 9 10 11 12 12 12
21 21 21 20 20 20 20 20 20 20 20 19 19 19 18 18 17 16 16 15 14 14 13 12 12 11 11 10 10 10 10 10 10 10 10 10 10 10 11 12 12 12
22 22 22 21 21 21 21 20 20 20 20 20 19 19 19 18 18 17 16 16 15 14 14 13 13 12 11 11 11 11 10 10 10 10 10 10 10 11 11 12 12 12
23 23 23 22 22 22 21 21 20 20 20 20 19 19 19 19 18 17 17 16 16 15 15 14 14 13 12 12 11 11 11 11 11 11 10 10 11 11 11 12 12 13
24 24 24 23 22 22 22 21 21 21 20 20 20 20 19 19 18 18 18 17 17 16 15 15 14 13 13 12 12 11 11 11 11 11 11 11 11 11 12 12 13 13
24 25 24 23 23 22 22 22 21 21 21 21 20 20 19 19 18 18 18 18 17 16 16 15 14 14 13 12 12 12 12 12 11 11 11 11 11 12 12 13 13 13
25 25 24 24 23 23 23 22 22 21 21 21 21 20 19 19 19 19 18 18 17 17 16 15 14 14 13 13 13 13 12 12 11 11 11 11 12 12 13 13 13 13
25 24 24 24 24 23 23 22 22 22 21 21 21 21 20 19 19 18 18 17 17 17 16 15 14 14 14 14 14 13 12 12 11 11 12 12 12 13 13 13 12 12
25 24 24 24 24 23 23 22 21 21 21 21 21 21 21 20 19 18 18 17 17 16 16 15 15 14 15 14 14 13 13 12 12 12 12 12 13 13 13 12 12 12
25 24 24 24 24 23 22 22 21 21 21 21 21 21 21 20 19 18 18 18 17 17 16 16 15 15 15 15 14 14 13 12 12 12 12 13 13 13 12 12 12 12
Wind_Direction
212 212 213 215 219 218 212 210 213 214 213 217 223 227 230 230 228 226 225 229 237 248 263 279 292 302 312 318 324 329 332 335 337 339 341 342 344 345 346 347 347 346
212 212 214 216 217 213 207 208 212 212 213 216 221 227 229 228 225 222 223 230 239 252 266 280 293 303 311 317 323 328 331 335 337 339 341 342 343 345 347 349 348 346
213 214 215 216 214 209 206 208 210 212 214 217 222 228 228 225 223 221 223 230 239 252 267 282 294 303 310 316 322 327 330 334 336 338 341 341 342 345 348 348 347 346
214 216 217 216 211 206 206 208 210 213 217 219 224 227 226 223 220 220 224 230 240 254 269 283 294 302 308 314 320 325 329 333 336 338 340 340 341 345 347 347 346 347
215 216 217 214 208 205 206 208 211 214 217 220 223 224 223 221 220 222 227 234 244 256 270 283 293 299 305 312 318 323 328 332 335 338 339 340 342 346 346 346 347 350
216 216 216 212 206 205 207 209 212 215 216 217 219 221 222 221 222 224 229 237 246 257 269 281 290 297 303 310 316 321 327 330 334 338 339 340 344 346 346 347 349 351
214 214 213 209 205 205 208 210 213 215 214 215 218 221 222 222 224 227 233 241 247 256 267 277 288 296 301 308 314 319 325 329 333 336 338 340 343 346 347 347 349 351
213 212 210 207 205 207 209 210 213 212 212 215 219 222 222 223 227 231 236 242 247 256 265 274 286 294 299 304 310 316 322 326 330 333 336 338 341 345 347 347 348 350
212 210 207 207 207 209 209 210 211 210 212 217 222 224 224 226 229 232 237 241 247 255 262 272 283 292 296 300 306 313 318 322 326 329 332 336 340 343 345 346 348 350
212 209 208 208 209 210 210 210 210 211 214 220 224 225 226 227 228 231 236 241 246 253 260 269 279 288 293 297 302 308 314 318 322 326 329 333 338 341 343 345 346 348
212 211 210 209 209 210 210 210 211 214 218 223 226 227 227 228 229 230 235 240 245 252 259 267 276 285 291 294 298 303 309 314 319 323 327 331 336 339 342 343 345 345
211 211 210 209 209 210 211 212 214 218 222 226 228 228 227 228 229 231 235 240 246 253 259 266 273 282 289 292 294 298 304 310 315 319 323 327 333 337 339 341 343 343
212 211 210 210 210 211 213 215 218 221 224 227 229 229 227 228 229 231 235 240 247 254 259 265 272 281 287 289 290 294 300 305 310 314 318 323 328 333 336 338 340 341
213 212 212 212 213 214 216 218 221 223 226 228 230 229 228 229 231 233 237 242 249 254 258 264 271 279 285 286 287 291 295 299 303 307 313 318 324 328 332 335 337 338
214 213 213 213 214 216 218 220 222 225 226 228 229 230 230 231 233 235 239 243 249 253 257 262 269 277 281 283 285 287 290 293 297 302 308 313 319 323 327 331 333 334
215 214 214 215 216 217 219 220 223 225 226 227 229 229 231 232 234 236 241 245 249 252 256 261 268 274 278 281 283 284 287 290 293 297 303 308 314 319 323 327 329 330
215 215 215 216 218 218 219 221 224 225 226 227 228 229 231 232 234 237 241 245 248 251 255 260 266 270 273 277 281 283 284 286 289 293 298 303 308 314 319 322 324 325
217 217 217 218 219 219 221 223 225 225 226 226 226 228 230 232 234 237 242 246 249 251 254 258 263 265 268 273 278 281 281 282 286 289 293 299 304 310 315 317 319 321
218 218 218 219 220 221 223 225 225 225 225 225 226 228 230 231 234 238 243 247 249 251 253 256 259 261 264 270 275 277 278 278 282 286 290 295 302 308 312 314 315 317
219 220 220 221 221 222 224 226 226 225 225 225 226 228 230 232 235 239 243 246 248 250 253 255 256 257 261 267 271 273 274 275 279 283 288 293 299 305 309 312 313 314
221 221 221 221 222 224 225 227 227 225 225 226 228 230 231 233 237 241 244 247 248 250 251 252 253 254 258 264 268 269 270 273 277 281 287 292 297 302 306 309 310 310
222 221 221 222 223 225 226 227 227 227 227 227 229 230 232 234 238 242 245 246 247 247 247 247 249 252 257 262 264 266 267 270 274 279 284 290 294 299 303 305 307 307
222 222 222 223 224 225 226 227 228 227 227 227 227 228 231 234 238 242 245 245 244 242 242 243 247 251 255 259 261 263 265 268 272 277 282 287 292 296 300 302 303 303
221 222 223 223 224 224 225 228 229 228 227 227 227 229 232 234 238 241 242 242 239 238 239 242 246 250 254 257 259 260 262 266 271 276 279 284 289 294 296 299 300 301
218 221 223 223 223 224 226 229 229 227 227 227 229 231 232 234 237 239 238 237 236 236 238 242 246 250 253 256 257 258 260 264 270 275 278 282 287 291 293 295 296 299
218 221 224 224 224 225 228 230 228 226 227 229 231 231 231 234 238 237 235 235 236 237 239 243 247 250 253 255 255 256 259 263 268 273 277 281 285 288 290 292 294 296